This is the latest recevied weather packets stored in our database for station/object N8HON. If no packets are shown the sender has not sent any weather packets the latest 10 day(s).
| Time | Temp. | Humidity | Pressure | Rain* | Wind** | Luminosity | Snow |
|---|---|---|---|---|---|---|---|
| 1777910023 | 18.33° C | 45% | 1012.3 hPa | 0 mm | - | 251 W/m² | - |
| 1777909720 | 18.33° C | 43% | 1012.2 hPa | 0 mm | - | 245 W/m² | - |
| 1777909417 | 18.89° C | 43% | 1012.2 hPa | 0 mm | - | 264 W/m² | - |
| 1777909115 | 18.89° C | 43% | 1012.4 hPa | 0 mm | - | 883 W/m² | - |
| 1777908813 | 19.44° C | 43% | 1012 hPa | 0 mm | - | 311 W/m² | - |
| 1777908509 | 20° C | 41% | 1012.1 hPa | 0 mm | - | 719 W/m² | - |
| 1777908206 | 18.89° C | 47% | 1012 hPa | 0 mm | - | 672 W/m² | - |
| 1777907902 | 18.89° C | 44% | 1012.2 hPa | 0 mm | - | 721 W/m² | - |
| 1777907598 | 18.33° C | 43% | 1012.2 hPa | 0 mm | - | 165 W/m² | - |
| 1777907294 | 18.89° C | 46% | 1012.4 hPa | 0 mm | - | 842 W/m² | - |
| 1777906990 | 19.44° C | 45% | 1012.2 hPa | 0 mm | - | 786 W/m² | - |
| 1777906689 | 18.33° C | 43% | 1012.4 hPa | 0 mm | - | 690 W/m² | - |
| 1777906384 | 18.89° C | 43% | 1012.5 hPa | 0 mm | - | 750 W/m² | - |
| 1777906081 | 18.33° C | 47% | 1012.4 hPa | 0 mm | - | 758 W/m² | - |
| 1777905777 | 18.89° C | 44% | 1012.5 hPa | 0 mm | - | 714 W/m² | - |
| 1777905475 | 18.33° C | 48% | 1012.6 hPa | 0 mm | - | 645 W/m² | - |
| 1777905172 | 17.78° C | 47% | 1012.6 hPa | 0 mm | - | 582 W/m² | - |
| 1777904869 | 18.33° C | 47% | 1012.5 hPa | 0 mm | - | 641 W/m² | - |
| 1777904566 | 17.78° C | 45% | 1012.3 hPa | 0 mm | - | 606 W/m² | - |
| 1777904263 | 17.22° C | 46% | 1012.6 hPa | 0 mm | - | 630 W/m² | - |
| 1777903961 | 17.78° C | 46% | 1012.5 hPa | 0 mm | - | 612 W/m² | - |
| 1777903657 | 17.22° C | 49% | 1012.7 hPa | 0 mm | - | 567 W/m² | - |
| 1777903353 | 17.22° C | 47% | 1012.4 hPa | 0 mm | - | 512 W/m² | - |
| 1777903050 | 17.22° C | 46% | 1012.4 hPa | 0 mm | - | 548 W/m² | - |
| 1777902746 | 16.11° C | 47% | 1012.6 hPa | 0 mm | - | 545 W/m² | - |
* Rain latest hour (hover to see other rain measurements)
** Current wind speed in m/s (hover to see current wind gust speed)